Flag for Philippines Weather past 2 weeks in Olongapo, Philippines

Now
79 °F

Passing clouds.


Feels Like: 82 °F
Forecast: 75 / 85 °F
Wind: No wind

Location: Subic Bay Weather Station

Current Time: Dec 20, 2014 at 8:18:41 PM

Latest Report: Dec 20, 2014 at 8:00 PM


Visibility: N/A

Pressure: 29.86 "Hg

Humidity: 79%

Dew point: 72 °F

Location of OlongapoLocation

Historic Weather in Olongapo — Graph

°F

Olongapo temperature yesterday

Maximum temperature yesterday: 84 °F (at 1:00 PM)
Minimum temperature yesterday: 75 °F (at 1:00 AM)
Average temperature yesterday: 79 °F

Past Weeks' High & Low Weather Summary

 TemperatureHumidityPressure
High90 °F (Dec 12, 12:00 PM)100% (Dec 12, 6:00 AM)30.01 "Hg (Dec 12, 6:00 AM)
Low72 °F (Dec 8, 6:00 AM)43% (Dec 7, 2:00 PM)29.65 "Hg (Dec 8, 2:00 PM)
Average80 °F69%29.85 "Hg
* Reported Dec 5 7:00 PM — Dec 20 7:00 PM, Olongapo, Weather by CustomWeather, © 2014

Note: Actual official high and low records may vary slightly from our data, if they occured in-between our weather recording intervals... More about our weather records

Advertising

Olongapo weather history for previous 24 hours

 ConditionsComfort  
Time TempWeatherWind HumidityBarometerVisibility
7:00 PM
Dec 20
81 °FPassing clouds.1 mph70%29.83 "HgN/A
6:00 PM82 °FPassing clouds.6 mph66%29.80 "HgN/A
5:00 PM84 °FPartly sunny.6 mph66%29.80 "HgN/A
4:00 PM86 °FPartly sunny.2 mph59%29.80 "HgN/A
3:00 PM86 °FPartly sunny.5 mph59%29.80 "HgN/A
2:00 PM86 °FPartly sunny.No wind55%29.80 "HgN/A
1:00 PM84 °FPartly sunny.No wind62%29.83 "HgN/A
12:00 PM82 °FPartly sunny.1 mph66%29.86 "HgN/A
11:00 AM82 °FPartly sunny.6 mph62%29.89 "HgN/A
10:00 AM81 °FPartly sunny.5 mph66%29.92 "HgN/A
9:00 AM81 °FScattered clouds.No wind62%29.92 "HgN/A
8:00 AM77 °FScattered clouds.6 mph69%29.89 "HgN/A
7:00 AM73 °FScattered clouds.No wind83%29.89 "HgN/A
6:00 AM75 °FPassing clouds.5 mph74%29.89 "HgN/A
5:00 AM73 °FPassing clouds.1 mph78%29.86 "HgN/A
2:00 AM75 °FPassing clouds.7 mph74%29.89 "HgN/A
11:00 PM
Dec 19
77 °FPassing clouds.8 mph74%29.95 "HgN/A
10:00 PM77 °FPassing clouds.5 mph74%29.95 "HgN/A
9:00 PM77 °FPassing clouds.7 mph74%29.98 "HgN/A
8:00 PM79 °FPassing clouds.6 mph70%29.95 "HgN/A
Weather by CustomWeather, © 2014

See weather overviewHow to use our weather pages